Weather reports worldwide

Advertisment
Baruth, Germany (10376): temperature & dewpoint: 15.06.2018 23:00:00 - 21.06.2018 23:00:00 (CEST)Baruth, Germany (10376): temperature 5cm & temperature -5cm: 15.06.2018 23:00:00 - 21.06.2018 23:00:00 (CEST)Baruth, Germany (10376): temperature -20cm & temperature -100cm: 15.06.2018 23:00:00 - 21.06.2018 23:00:00 (CEST)Baruth, Germany (10376): wind speed & gusts: 15.06.2018 23:00:00 - 21.06.2018 23:00:00 (CEST)Baruth, Germany (10376): wind direction: 15.06.2018 23:00:00 - 21.06.2018 23:00:00 (CEST)Baruth, Germany (10376): reduced air pressure: 15.06.2018 23:00:00 - 21.06.2018 23:00:00 (CEST)Baruth, Germany (10376): visibility: 15.06.2018 23:00:00 - 21.06.2018 23:00:00 (CEST)Baruth, Germany (10376): sunshine duration: 15.06.2018 23:00:00 - 21.06.2018 23:00:00 (CEST)Baruth, Germany (10376): precipitation: 15.06.2018 23:00:00 - 21.06.2018 23:00:00 (CEST)
Date & Time tt [°C] td [°C] tt 5cm [°C] tt -5cm [°C] tt -20cm [°C] tt -100cm [°C] ff [km/h] ff [kn] fx [km/h] fx [kn] dd ppp [hPa] vv [km] sd [min] rr [mm]
21.06.2018 23:00:00 11,0 5,3 9,5 13,8 21,5 18,3 11 6 19 10 W 1017,3 58 0 0,0
21.06.2018 22:00:00 13,5 4,9 12,0 14,7 22,0 18,3 13 7 36 19 WNW 1016,5 65 0 0,0
21.06.2018 21:00:00 14,6 3,8 13,4 16,6 22,4 18,3 19 10 49 27 WNW 1015,7 69 49 0,0
21.06.2018 20:00:00 16,1 5,6 16,0 18,6 22,7 18,3 24 13 49 26 W 1014,8 59 48 0,0
21.06.2018 19:00:00 16,6 5,5 17,3 20,3 23,0 18,3 33 18 66 35 W 1014,4 16 60 0,0
21.06.2018 18:00:00 16,5 4,7 15,8 21,5 23,2 18,3 31 17 53 28 W 1013,8 25 34 0,0
21.06.2018 17:00:00 13,6 8,2 13,0 22,1 23,5 18,3 21 11 49 26 WNW 1013,9 47 12 0,1
21.06.2018 16:00:00 13,5 11,1 14,6 22,4 23,7 18,3 13 7 45 24 W 1012,9 14 3 2,4
21.06.2018 15:00:00 16,5 10,8 15,4 26,9 23,6 18,3 26 14 56 30 WNW 1012,1 15 24 0,5
21.06.2018 14:00:00 16,7 12,6 15,5 30,4 23,3 18,3 29 16 83 45 WNW 1010,6 6 9 0,7
21.06.2018 13:00:00 28,6 12,2 31,6 31,1 22,9 18,3 31 17 51 28 WSW 1007,0 16 40 0,0
21.06.2018 12:00:00 28,4 13,0 31,3 29,9 22,5 18,3 26 14 47 26 WSW 1007,4 25 24 0,0
21.06.2018 11:00:00 26,7 13,4 28,2 29,6 22,1 18,3 22 12 42 23 WSW 1008,1 28 37 0,0
21.06.2018 10:00:00 27,2 14,2 30,8 26,9 21,8 18,3 16 9 29 15 SSW 1009,1 34 58 0,0
21.06.2018 09:00:00 25,2 14,1 27,7 23,8 21,7 18,3 18 10 30 16 SSW 1010,4 15 60 0,0
21.06.2018 08:00:00 23,2 14,2 24,6 21,2 21,8 18,3 16 9 23 12 SSW 1011,4 16 52 0,0
21.06.2018 07:00:00 19,7 13,8 19,4 19,3 22,1 18,3 2 1 5 3 W 1012,2 15 59 0,0
21.06.2018 06:00:00 14,5 12,6 13,6 19,0 22,4 18,3 0 0 6 3 N 1012,8 9 5 0,0
21.06.2018 05:00:00 14,6 13,0 14,0 19,2 22,7 18,2 3 1 4 2 E 1013,1 11 0 0,0
21.06.2018 04:00:00 14,7 13,0 12,4 19,7 23,0 18,2 0 0 3 2 N 1013,7 15 0 0,0
21.06.2018 03:00:00 15,4 13,3 12,9 20,3 23,3 18,2 0 0 5 3 N 1014,4 16 0 0,0
21.06.2018 02:00:00 15,6 13,1 13,5 21,1 23,7 18,2 3 2 7 4 WSW 1015,0 18 0 0,0
21.06.2018 01:00:00 16,7 13,3 13,8 21,9 24,0 18,2 5 3 8 5 NW 1015,4 21 0 0,0
21.06.2018 00:00:00 18,5 13,8 14,4 23,2 24,3 18,2 5 3 6 3 WSW 1015,7 28 0 0,0
20.06.2018 23:00:00 20,6 13,9 17,9 24,7 24,5 18,2 5 3 15 8 NNW 1015,9 31 0 0,0
20.06.2018 22:00:00 21,7 14,3 17,4 26,8 24,7 18,2 3 2 6 4 SSE 1015,8 35 8 0,0
20.06.2018 21:00:00 25,4 13,3 22,0 29,2 24,6 18,3 5 3 17 9 W 1015,7 44 41 0,0
20.06.2018 20:00:00 28,5 13,3 28,6 30,8 24,5 18,3 8 4 21 11 W 1015,9 46 49 0,0
20.06.2018 19:00:00 29,2 13,2 30,7 31,6 24,3 18,3 14 7 24 13 W 1016,5 28 53 0,0
20.06.2018 18:00:00 27,7 13,5 29,0 32,0 24,0 18,3 4 2 16 9 SSW 1017,3 41 14 0,0
20.06.2018 17:00:00 28,0 12,8 30,7 32,8 23,6 18,3 8 5 21 12 SW 1018,3 44 18 0,0
20.06.2018 16:00:00 28,4 13,0 33,0 32,5 23,1 18,3 11 6 24 13 W 1018,9 40 19 0,0
20.06.2018 15:00:00 26,8 12,6 29,8 31,6 22,7 18,3 12 7 26 14 WSW 1019,7 41 27 0,0
20.06.2018 14:00:00 26,0 14,0 29,0 29,8 22,3 18,3 13 7 22 12 WSW 1020,5 28 0 0,0
20.06.2018 13:00:00 24,7 13,2 27,8 28,2 22,0 18,3 10 5 24 13 SW 1021,5 31 1 0,0
20.06.2018 12:00:00 24,2 13,5 26,1 27,7 21,6 18,3 10 6 20 11 SW 1021,9 37 1 0,0
20.06.2018 11:00:00 24,3 13,5 28,3 26,6 21,3 18,3 12 6 19 11 SW 1022,3 33 32 0,0
20.06.2018 10:00:00 22,4 14,6 25,2 23,6 21,1 18,3 6 3 16 9 SE 1022,8 23 15 0,0
20.06.2018 09:00:00 20,5 13,9 22,3 21,4 21,1 18,3 10 5 17 9 SE 1023,2 25 0 0,0
20.06.2018 08:00:00 18,5 14,5 19,9 19,5 21,3 18,3 3 2 7 4 SE 1023,5 13 0 0,0
20.06.2018 07:00:00 15,5 13,3 16,0 18,1 21,5 18,3 0 0 4 2 N 1023,6 12 0 0,0
20.06.2018 06:00:00 12,9 11,7 13,1 17,4 21,8 18,3 0 0 6 3 N 1023,6 12 0 0,0
20.06.2018 05:00:00 11,6 10,8 9,0 17,8 22,2 18,3 3 2 6 4 S 1023,7 7 0 0,0
20.06.2018 04:00:00 12,8 11,8 10,1 18,4 22,5 18,2 5 3 6 3 W 1023,4 11 0 0,0
20.06.2018 03:00:00 12,8 11,2 10,4 19,0 22,9 18,2 6 3 8 4 WNW 1023,3 7 0 0,0
20.06.2018 02:00:00 13,4 12,3 10,8 19,7 23,2 18,2 4 2 6 3 W 1023,3 9 0 0,0
20.06.2018 01:00:00 13,9 12,3 11,2 20,7 23,6 18,2 4 2 6 3 W 1023,1 12 0 0,0
20.06.2018 00:00:00 16,0 13,0 12,7 21,9 23,9 18,2 4 2 6 4 WSW 1023,0 22 0 0,0
19.06.2018 23:00:00 17,5 13,3 15,0 23,3 24,1 18,2 3 2 11 6 W 1022,7 25 0 0,0
19.06.2018 22:00:00 20,1 13,6 16,4 24,8 24,3 18,2 7 4 12 7 W 1022,2 36 7 0,0
19.06.2018 21:00:00 21,6 13,6 19,9 26,6 24,4 18,2 8 5 14 7 W 1021,5 41 42 0,0
19.06.2018 20:00:00 23,4 13,1 23,6 27,5 24,5 18,2 10 5 19 11 W 1021,5 49 17 0,0
19.06.2018 19:00:00 23,8 12,9 24,6 28,3 24,5 18,2 9 5 27 14 WNW 1021,5 50 0 0,0
19.06.2018 18:00:00 24,0 12,4 24,6 29,7 24,4 18,2 17 9 28 15 W 1021,4 52 0 0,0
19.06.2018 17:00:00 24,9 10,8 26,8 30,6 24,2 18,3 19 10 31 17 W 1021,3 40 1 0,0
19.06.2018 16:00:00 24,9 10,6 26,6 31,4 24,0 18,3 16 9 28 15 W 1021,0 53 0 0,0
19.06.2018 15:00:00 25,3 11,7 27,6 31,8 23,6 18,3 17 9 28 15 W 1020,8 40 0 0,0
19.06.2018 14:00:00 25,3 10,9 28,5 32,6 23,1 18,3 14 8 29 16 WNW 1020,7 52 3 0,0
19.06.2018 13:00:00 24,9 10,0 28,4 33,5 22,5 18,3 16 9 31 17 W 1020,6 34 40 0,0
19.06.2018 12:00:00 25,2 10,4 28,9 31,3 22,0 18,3 14 8 32 17 W 1020,6 27 56 0,0
19.06.2018 11:00:00 23,4 10,8 27,6 27,9 21,6 18,3 18 10 32 17 W 1020,9 29 60 0,0
19.06.2018 10:00:00 22,3 12,0 25,6 24,6 21,4 18,3 17 9 30 16 W 1020,8 12 59 0,0
19.06.2018 09:00:00 20,2 12,4 22,0 21,9 21,5 18,3 19 11 28 15 W 1021,0 32 9 0,0
19.06.2018 08:00:00 19,0 12,9 19,8 20,6 21,6 18,3 13 7 25 13 W 1020,8 40 7 0,0
19.06.2018 07:00:00 18,4 12,1 18,6 19,6 21,7 18,2 12 7 18 10 WSW 1020,3 36 18 0,0
19.06.2018 06:00:00 16,5 11,7 15,1 19,2 22,0 18,2 6 3 9 5 SW 1019,9 36 6 0,0
19.06.2018 05:00:00 16,1 11,6 14,5 19,4 22,2 18,2 4 2 7 4 SW 1019,6 41 0 0,0
19.06.2018 04:00:00 16,7 11,0 16,1 19,3 22,5 18,2 5 3 11 6 W 1019,8 49 0 0,0
19.06.2018 03:00:00 16,9 11,2 16,0 19,2 22,9 18,2 9 5 15 8 W 1019,8 48 0 0,0
19.06.2018 02:00:00 15,2 10,8 11,2 19,8 23,2 18,2 8 5 13 7 WSW 1019,8 42 0 0,0
19.06.2018 01:00:00 14,8 10,8 11,0 21,0 23,5 18,2 4 2 6 4 SSW 1019,8 43 0 0,0
19.06.2018 00:00:00 16,4 11,4 13,3 22,2 23,8 18,2 3 1 5 3 SSW 1019,9 50 0 0,0
18.06.2018 23:00:00 17,3 11,1 14,6 23,5 24,1 18,2 4 2 6 4 SSW 1019,9 50 0 0,0
18.06.2018 22:00:00 19,4 11,6 18,3 25,0 24,3 18,2 6 4 16 9 WSW 1019,5 45 8 0,0
18.06.2018 21:00:00 21,8 10,9 21,5 26,5 24,4 18,2 11 6 17 9 W 1018,9 63 0 0,0
18.06.2018 20:00:00 22,6 10,1 22,8 27,9 24,4 18,2 8 4 18 10 SW 1018,7 52 0 0,0
18.06.2018 19:00:00 22,9 9,5 23,5 29,5 24,3 18,3 11 6 23 13 W 1019,1 59 0 0,0
18.06.2018 18:00:00 23,5 9,0 24,9 31,5 24,0 18,3 16 9 27 15 W 1019,2 49 23 0,0
18.06.2018 17:00:00 23,7 8,8 26,2 31,3 23,7 18,3 16 9 29 15 WSW 1019,3 30 15 0,0
18.06.2018 16:00:00 23,1 8,9 25,6 31,8 23,3 18,3 20 11 31 17 W 1019,6 48 17 0,0
18.06.2018 15:00:00 22,9 8,8 25,1 32,0 22,8 18,3 14 8 29 16 W 1019,8 38 13 0,0
18.06.2018 14:00:00 23,5 8,4 28,5 30,8 22,4 18,3 7 4 29 16 SW 1019,8 40 42 0,0
18.06.2018 13:00:00 22,7 8,6 27,2 28,7 22,0 18,3 18 10 36 20 W 1020,1 30 36 0,0
18.06.2018 12:00:00 20,7 9,7 23,0 27,8 21,6 18,3 20 11 36 19 W 1020,2 32 14 0,0
18.06.2018 11:00:00 22,0 9,5 26,4 26,0 21,3 18,2 18 10 33 18 W 1020,1 21 60 0,0
18.06.2018 10:00:00 20,6 10,0 24,2 22,0 21,3 18,2 18 10 27 14 W 1020,1 21 27 0,0
18.06.2018 09:00:00 17,1 9,9 18,2 20,3 21,3 18,2 8 5 14 8 W 1020,0 29 0 0,0
18.06.2018 08:00:00 16,3 9,4 17,0 19,5 21,5 18,2 13 7 18 10 W 1019,7 33 0 0,0
18.06.2018 07:00:00 16,1 8,6 16,6 17,8 21,8 18,2 9 5 17 9 W 1019,2 35 47 0,0
18.06.2018 06:00:00 12,6 7,6 10,6 16,8 22,2 18,2 6 3 10 6 W 1019,1 32 0 0,0
18.06.2018 05:00:00 11,3 7,0 7,4 17,2 22,6 18,2 8 4 10 6 W 1019,2 24 0 0,0
18.06.2018 04:00:00 10,9 7,1 7,0 17,9 23,0 18,2 6 3 8 5 W 1018,8 25 0 0,0
18.06.2018 03:00:00 12,0 7,7 7,2 18,8 23,5 18,2 3 1 9 5 W 1018,6 33 0 0,0
18.06.2018 02:00:00 13,7 7,9 9,0 20,1 23,9 18,2 8 4 10 5 W 1018,7 36 0 0,0
18.06.2018 01:00:00 14,0 7,9 10,1 21,6 24,2 18,1 5 3 7 4 W 1018,3 38 0 0,0
18.06.2018 00:00:00 17,3 8,2 13,9 22,9 24,5 18,1 5 3 6 3 WSW 1017,9 43 0 0,0
17.06.2018 23:00:00 18,2 8,0 16,4 24,1 24,8 18,1 5 3 10 5 WNW 1017,4 49 0 0,0
17.06.2018 22:00:00 20,2 7,6 17,0 25,9 25,0 18,1 5 3 19 10 NW 1017,0 40 0 0,0
17.06.2018 21:00:00 22,3 7,1 22,1 27,5 25,2 18,1 10 5 27 14 NW 1016,5 55 17 0,0
17.06.2018 20:00:00 23,5 8,0 24,1 28,9 25,2 18,1 10 6 31 17 NW 1015,9 70 12 0,0
17.06.2018 19:00:00 23,9 8,8 25,0 30,5 25,2 18,1 14 8 31 17 NW 1015,2 49 54 0,0
17.06.2018 18:00:00 24,0 9,8 24,7 31,1 25,0 18,1 13 7 34 19 NW 1014,7 37 6 0,0
17.06.2018 17:00:00 25,1 11,4 26,3 32,4 24,8 18,1 13 7 31 17 W 1014,4 39 2 0,0
17.06.2018 16:00:00 25,2 12,2 26,8 33,9 24,4 18,1 21 11 41 22 W 1014,2 37 19 0,0
17.06.2018 15:00:00 28,1 12,5 33,2 32,3 24,1 18,1 14 7 34 19 WNW 1013,8 38 29 0,0
17.06.2018 14:00:00 25,2 13,3 26,5 32,6 23,7 18,1 15 8 26 14 W 1014,0 41 9 0,0
17.06.2018 13:00:00 25,9 13,4 28,0 33,6 23,1 18,1 16 9 32 17 W 1014,1 45 24 0,0
17.06.2018 12:00:00 26,6 12,4 31,1 32,2 22,5 18,1 18 10 31 17 W 1014,2 21 60 0,0
17.06.2018 11:00:00 25,4 12,8 29,1 29,5 22,1 18,1 17 9 27 15 W 1014,5 19 60 0,0
17.06.2018 10:00:00 24,9 12,4 28,1 26,5 21,9 18,1 13 7 20 11 W 1014,3 24 60 0,0
17.06.2018 09:00:00 23,2 12,6 25,5 23,5 21,9 18,1 12 7 23 12 W 1014,1 21 58 0,0
17.06.2018 08:00:00 21,9 13,3 23,0 21,4 22,0 18,1 6 4 11 6 W 1014,1 19 36 0,0
17.06.2018 07:00:00 19,3 12,2 18,8 20,4 22,2 18,1 4 2 12 6 ESE 1013,7 17 30 0,0
17.06.2018 06:00:00 18,4 11,1 16,9 20,4 22,4 18,1 8 5 11 6 E 1013,5 19 0 0,0
17.06.2018 05:00:00 18,7 11,1 17,2 20,8 22,7 18,1 5 3 17 9 ENE 1013,5 19 0 0,0
17.06.2018 04:00:00 18,4 11,2 16,8 21,3 22,9 18,1 6 4 14 7 NNE 1013,8 19 0 0,0
17.06.2018 03:00:00 20,0 11,0 19,1 21,7 23,1 18,1 9 5 18 10 E 1013,9 20 0 0,0
17.06.2018 02:00:00 19,9 10,9 19,1 22,2 23,4 18,1 8 4 17 9 ESE 1014,1 20 0 0,0
17.06.2018 01:00:00 20,1 10,8 19,4 22,7 23,6 18,1 8 4 10 5 ESE 1014,3 21 0 0,0
17.06.2018 00:00:00 20,3 10,3 18,6 23,4 23,9 18,1 5 3 8 5 ESE 1014,3 26 0 0,0
16.06.2018 23:00:00 20,8 10,4 18,6 24,3 24,1 18,1 5 3 9 5 SE 1014,3 22 0 0,0
16.06.2018 22:00:00 22,1 9,6 19,2 25,7 24,2 18,1 5 3 10 5 SE 1014,2 31 0 0,0
16.06.2018 21:00:00 23,9 8,9 22,8 27,5 24,3 18,1 7 4 11 6 SSE 1013,8 37 0 0,0
16.06.2018 20:00:00 25,1 10,2 25,1 29,3 24,2 18,1 8 4 16 9 S 1013,7 36 3 0,0
16.06.2018 19:00:00 26,5 10,5 27,5 30,5 24,0 18,1 3 1 17 9 SSW 1013,7 40 5 0,0
16.06.2018 18:00:00 26,2 9,4 27,8 31,1 23,7 18,1 13 7 25 14 S 1013,9 32 48 0,0
16.06.2018 17:00:00 26,3 9,9 28,4 30,0 23,5 18,1 13 7 22 12 S 1014,3 41 16 0,0
16.06.2018 16:00:00 25,9 9,9 27,9 29,5 23,3 18,1 4 2 18 10 ESE 1014,6 35 0 0,0
16.06.2018 15:00:00 25,6 10,1 27,8 30,6 23,0 18,2 8 5 14 8 E 1015,0 38 3 0,0
16.06.2018 14:00:00 25,1 10,5 27,6 30,8 22,5 18,2 6 3 18 10 S 1015,6 42 11 0,0
16.06.2018 13:00:00 24,7 11,4 27,4 30,4 22,0 18,2 10 6 23 12 S 1016,1 42 6 0,0
16.06.2018 12:00:00 24,7 11,2 28,1 30,2 21,5 18,2 12 7 22 12 SSE 1016,5 42 34 0,0
16.06.2018 11:00:00 24,6 11,4 29,5 27,5 21,1 18,2 7 4 16 9 E 1016,6 42 36 0,0
16.06.2018 10:00:00 22,9 10,3 26,0 24,6 20,9 18,2 7 4 14 8 SE 1016,9 49 32 0,0
16.06.2018 09:00:00 21,3 12,8 23,4 22,0 20,8 18,2 6 3 11 6 ESE 1017,1 35 2 0,0
16.06.2018 08:00:00 19,2 12,9 20,7 20,1 20,9 18,2 4 2 8 4 ESE 1017,0 20 5 0,0
16.06.2018 07:00:00 17,0 13,2 17,3 19,1 21,1 18,2 3 2 5 3 ESE 1017,1 12 1 0,0
16.06.2018 06:00:00 15,3 12,6 15,0 18,9 21,3 18,2 2 1 5 3 NNE 1017,2 14 0 0,0
16.06.2018 05:00:00 14,8 12,7 14,1 19,1 21,5 18,2 2 1 4 2 ENE 1017,3 11 0 0,0
16.06.2018 04:00:00 15,1 12,7 14,3 19,4 21,7 18,2 0 0 5 3 N 1017,4 13 0 0,0
16.06.2018 03:00:00 15,5 12,5 14,6 19,8 21,9 18,2 2 1 6 3 SE 1017,4 19 0 0,0
16.06.2018 02:00:00 16,0 12,8 15,1 20,2 22,1 18,2 0 0 7 4 N 1017,5 19 0 0,0
16.06.2018 01:00:00 16,5 12,5 15,4 20,7 22,4 18,2 5 3 7 4 ESE 1017,5 22 0 0,0
16.06.2018 00:00:00 16,1 12,7 15,4 21,3 22,6 18,2 3 2 6 3 ESE 1017,4 19 0 0,0
15.06.2018 23:00:00 17,8 12,4 16,4 22,1 22,7 18,2 3 2 6 3 SE 1017,2 18 0 0,0

tt = temperature
td = dewpoint
tt 5cm = temperature 5cm
tt -5cm = temperature -5cm
tt -20cm = temperature -20cm
tt -100cm = temperature -100cm
ff = wind speed
fx = gusts
dd = wind direction
ppp = reduced air pressure
vv = visibility
sd = sunshine duration
rr = precipitation

Next stations